Weather History for Custer, SD

Change the Weather History Date:

Saturday, March 22, 2014

  Actual Average Record
Temperature  
Mean Temperature 12 °F 33 °F  
Max Temperature 16 °F 43 °F 70 °F (1945)
Min Temperature 8 °F 23 °F -9 °F (1968)
Degree Days  
Heating Degree Days 53 32  
Month to date heating degree days 745 759  
Since 1 July heating degree days 6603 6594  
Cooling Degree Days 0 0  
Month to date cooling degree days 0 0  
Year to date cooling degree days 0 0  
Moisture  
Dew Point 9 °F    
Average Humidity 84    
Maximum Humidity 92    
Minimum Humidity 76    
Precipitation  
Precipitation 0.23 in 0.04 in 0.66 in (1973)
Month to date precipitation 0.86 0.61  
Year to date precipitation 2.19 1.47  
Sea Level Pressure  
Sea Level Pressure 30.26 in    
Wind  
Wind Speed 6 mph (East)    
Max Wind Speed 12 mph    
Max Gust Speed 15 mph    
Visibility 2 miles    
Events Fog , Snow    
T = Trace of Precipitation, MM = Missing Value Source: NWS Daily Summary

Daily Weather History Graph

Daily Weather History Graph

Search for Another Location

Airport:

Trip Planner

Search our weather history database for the weather conditions in past years. The results will help you decide how hot, cold, wet, or windy it might be!

Date:

Astronomy

Mar. 22, 2014 Rise Set
Actual Time 6:53 AM MDT 7:09 PM MDT
Civil Twilight 6:25 AM MDT 7:38 PM MDT
Nautical Twilight 5:51 AM MDT 8:11 PM MDT
Astronomical Twilight 5:17 AM MDT 8:46 PM MDT
Moon 12:39 AM MDT (3/22) 10:30 AM MDT (3/22)
Length of Visible Light 13h 12m
Length of Day
12h 15m
Waning Gibbous, 65% of the Moon is Illuminated
Mar 22
Waning Gibbous
Mar 23
Last Quarter
Mar 30
New
Apr 7
First Quarter
Apr 15
Full

Hourly Weather History & Observations

Time (MDT) Temp. Windchill Dew Point Humidity Pressure Visibility Wind Dir Wind Speed Gust Speed Precip Events Conditions
12:53 AM 15.1 °F 4.2 °F 12.9 °F 91% 30.29 in 10.0 mi ESE 8.1 mph - 0.01 in   Overcast
1:28 AM 15.1 °F 7.7 °F 12.9 °F 91% 30.14 in 1.8 mi East 4.6 mph - 0.00 in Snow Light Snow
1:37 AM 15.1 °F 6.4 °F 12.9 °F 91% 30.14 in 3.0 mi ENE 5.8 mph - 0.00 in Snow Light Snow
1:53 AM 15.1 °F 6.4 °F 12.0 °F 88% 30.29 in 5.0 mi East 5.8 mph - 0.00 in Snow Light Snow
2:31 AM 14.0 °F 5.1 °F 12.0 °F 92% 30.13 in 2.5 mi East 5.8 mph - 0.00 in Snow Light Snow
2:44 AM 14.0 °F 5.1 °F 12.0 °F 92% 30.13 in 1.5 mi East 5.8 mph - 0.00 in Snow Light Snow
2:53 AM 14.0 °F 5.1 °F 10.9 °F 88% 30.30 in 1.5 mi ENE 5.8 mph - 0.00 in Snow Light Snow
3:09 AM 14.0 °F 8.2 °F 10.9 °F 88% 30.13 in 1.5 mi East 3.5 mph - 0.01 in Snow Light Snow
3:17 AM 14.0 °F 8.2 °F 10.0 °F 84% 30.13 in 1.5 mi ENE 3.5 mph - 0.01 in Snow Light Snow
3:39 AM 12.9 °F 3.8 °F 10.0 °F 88% 30.13 in 2.5 mi NE 5.8 mph - 0.01 in Snow Light Snow
3:50 AM 12.2 °F 4.3 °F 10.4 °F 92% 30.13 in 3.0 mi ENE 4.6 mph - 0.01 in Snow Light Snow
3:53 AM 12.9 °F 6.9 °F 10.0 °F 88% 30.29 in 3.0 mi ENE 3.5 mph - 0.01 in Snow Light Snow
4:02 AM 12.9 °F 3.8 °F 10.0 °F 88% 30.12 in 2.0 mi ENE 5.8 mph - 0.00 in Snow Light Snow
4:12 AM 12.9 °F 3.8 °F 10.0 °F 88% 30.12 in 1.5 mi ENE 5.8 mph - 0.00 in Snow Light Snow
4:53 AM 12.9 °F 3.8 °F 10.0 °F 88% 30.29 in 2.0 mi ENE 5.8 mph - 0.01 in Snow Light Snow
5:26 AM 12.9 °F 3.8 °F 9.0 °F 84% 30.13 in 1.2 mi ENE 5.8 mph - 0.01 in Snow Light Snow
5:53 AM 12.0 °F 2.7 °F 8.1 °F 84% 30.32 in 1.2 mi ENE 5.8 mph - 0.02 in Snow Light Snow
6:53 AM 10.0 °F -2.9 °F 6.1 °F 84% 30.35 in 1.8 mi ENE 9.2 mph - 0.01 in Snow Light Snow
7:14 AM 9.0 °F -5.1 °F 5.0 °F 84% 30.16 in 1.8 mi ENE 10.4 mph - 0.00 in Snow Light Snow
7:53 AM 9.0 °F -2.2 °F 6.1 °F 88% 30.39 in 1.5 mi NE 6.9 mph - 0.00 in Snow Light Snow
8:01 AM 9.0 °F -5.1 °F 5.0 °F 84% 30.17 in 1.2 mi ENE 10.4 mph - 0.00 in Snow Light Snow
8:32 AM 9.0 °F -0.9 °F 5.0 °F 84% 30.18 in 2.0 mi ENE 5.8 mph - 0.01 in Snow Light Snow
8:42 AM 9.0 °F -3.2 °F 3.9 °F 80% 30.18 in 4.0 mi ENE 8.1 mph - 0.01 in   Haze
8:53 AM 9.0 °F -4.2 °F 3.9 °F 80% 30.41 in 2.0 mi ENE 9.2 mph - 0.01 in Snow Light Snow
9:00 AM 9.0 °F -3.2 °F 3.9 °F 80% 30.19 in 1.5 mi ENE 8.1 mph - 0.00 in Snow Light Snow
9:25 AM 9.0 °F -3.2 °F 3.9 °F 80% 30.19 in 2.5 mi NE 8.1 mph - 0.01 in Snow Light Snow
9:53 AM 10.0 °F -0.9 °F 5.0 °F 80% 30.43 in 4.0 mi ENE 6.9 mph - 0.01 in Snow Light Snow
10:04 AM 10.0 °F 1.8 °F 5.0 °F 80% 30.20 in 2.0 mi ENE 4.6 mph - 0.00 in Snow Light Snow
10:14 AM 10.9 °F 0.2 °F 5.0 °F 77% 30.20 in 1.5 mi ENE 6.9 mph - 0.00 in Snow Light Snow
10:27 AM 12.0 °F 4.1 °F 6.1 °F 77% 30.20 in 3.0 mi NE 4.6 mph - 0.00 in Snow Light Snow
10:53 AM 12.9 °F 3.8 °F 7.0 °F 77% 30.43 in 2.5 mi East 5.8 mph - 0.00 in Snow Light Snow
11:00 AM 12.9 °F 6.9 °F 8.1 °F 81% 30.21 in 1.5 mi ESE 3.5 mph - 0.00 in Snow Light Snow
11:20 AM 12.9 °F 6.9 °F 9.0 °F 84% 30.20 in 2.0 mi SE 3.5 mph - 0.00 in Snow Light Snow
11:29 AM 12.9 °F - 8.1 °F 81% 30.20 in 1.5 mi Calm Calm - 0.00 in Snow Light Snow
11:53 AM 15.1 °F 6.4 °F 10.0 °F 80% 30.41 in 2.0 mi East 5.8 mph - 0.00 in Snow Light Snow
12:02 PM 15.1 °F 7.7 °F 10.0 °F 80% 30.20 in 1.5 mi SE 4.6 mph - 0.00 in Snow Light Snow
12:19 PM 16.0 °F 10.4 °F 10.0 °F 77% 30.20 in 0.8 mi East 3.5 mph - 0.00 in Snow Light Snow
12:31 PM 16.0 °F 8.8 °F 10.0 °F 77% 30.20 in 1.0 mi East 4.6 mph - 0.00 in Snow Light Snow
12:48 PM 15.8 °F 7.2 °F 10.4 °F 79% 30.20 in 0.8 mi ESE 5.8 mph - 0.00 in Snow Light Snow
12:53 PM 15.1 °F 6.4 °F 10.0 °F 80% 30.42 in 0.8 mi East 5.8 mph - 0.00 in Snow Light Snow
1:21 PM 15.1 °F 5.2 °F 10.0 °F 80% 30.20 in 0.2 mi SE 6.9 mph - 0.01 in Snow Heavy Snow
1:31 PM 15.1 °F 5.2 °F 10.9 °F 84% 30.20 in 0.5 mi SSE 6.9 mph - 0.02 in Fog , Snow Snow
1:44 PM 14.0 °F 3.9 °F 10.0 °F 84% 30.20 in 0.2 mi South 6.9 mph - 0.02 in Fog , Snow Snow
1:53 PM 14.0 °F 6.5 °F 10.0 °F 84% 30.43 in 0.5 mi SSE 4.6 mph - 0.03 in Fog , Snow Snow
2:02 PM 14.0 °F 6.5 °F 10.0 °F 84% 30.20 in 0.2 mi SE 4.6 mph - 0.00 in Fog , Snow Heavy Snow
2:53 PM 14.0 °F 3.9 °F 10.0 °F 84% 30.43 in 0.2 mi SE 6.9 mph - 0.04 in Fog , Snow Heavy Snow
3:39 PM 14.0 °F 6.5 °F 10.0 °F 84% 30.20 in 0.5 mi East 4.6 mph - 0.02 in Fog , Snow Snow
3:53 PM 14.0 °F 6.5 °F 10.0 °F 84% 30.43 in 0.5 mi SSE 4.6 mph - 0.02 in Fog , Snow Snow
4:46 PM 14.0 °F 5.1 °F 10.0 °F 84% 30.21 in 0.5 mi SE 5.8 mph - 0.02 in Fog , Snow Snow
4:53 PM 14.0 °F 6.5 °F 10.0 °F 84% 30.44 in 0.5 mi Variable 4.6 mph - 0.02 in Fog , Snow Snow
5:24 PM 12.9 °F 3.8 °F 9.0 °F 84% 30.22 in 0.2 mi ESE 5.8 mph - 0.01 in Fog , Snow Snow
5:53 PM 12.0 °F 4.1 °F 8.1 °F 84% 30.47 in 0.2 mi ESE 4.6 mph - 0.03 in Fog , Snow Heavy Snow
6:13 PM 12.0 °F 4.1 °F 8.1 °F 84% 30.23 in 0.5 mi SSE 4.6 mph - 0.01 in Fog , Snow Snow
6:27 PM 12.0 °F 4.1 °F 8.1 °F 84% 30.22 in 0.5 mi South 4.6 mph - 0.01 in Fog , Snow Snow
6:53 PM 10.9 °F 4.7 °F 8.1 °F 88% 30.48 in 0.8 mi Variable 3.5 mph - 0.02 in Snow Light Snow
7:18 PM 12.0 °F 4.1 °F 8.1 °F 84% 30.23 in 1.0 mi SSW 4.6 mph - 0.00 in Snow Light Snow
7:32 PM 10.9 °F - 8.1 °F 88% 30.23 in 2.5 mi Calm Calm - 0.00 in Snow Light Snow
7:42 PM 10.9 °F 4.7 °F 7.0 °F 84% 30.23 in 3.0 mi SSW 3.5 mph - 0.00 in Snow Light Snow
7:53 PM 10.9 °F 4.7 °F 7.0 °F 84% 30.50 in 6.0 mi Variable 3.5 mph - 0.00 in Snow Light Snow
8:03 PM 10.9 °F 4.7 °F 7.0 °F 84% 30.23 in 5.0 mi West 3.5 mph - 0.00 in Snow Light Snow
8:53 PM 12.0 °F 0.5 °F 8.1 °F 84% 30.49 in 4.0 mi WSW 8.1 mph - 0.00 in Snow Light Snow
9:46 PM 10.9 °F 0.2 °F 8.1 °F 88% 30.23 in 8.0 mi WSW 6.9 mph - 0.00 in   Overcast
9:53 PM 10.9 °F 0.2 °F 8.1 °F 88% 30.49 in 9.0 mi WSW 6.9 mph - 0.00 in   Overcast
10:53 PM 10.9 °F 1.4 °F 9.0 °F 92% 30.48 in 9.0 mi WSW 5.8 mph - N/A   Overcast
11:06 PM 10.9 °F 4.7 °F 9.0 °F 92% 30.23 in 10.0 mi SW 3.5 mph - N/A   Overcast
11:53 PM 12.0 °F 4.1 °F 9.0 °F 88% 30.45 in 10.0 mi West 4.6 mph - N/A   Overcast